Overview Statistics Trail Chart Weather Telemetry Raw packets
 

This is the latest recevied weather packets stored in our database for station/object KC4GS-13. If no packets are shown the sender has not sent any weather packets the latest 10 day(s).

<< 103 104 105 106 107 108 109 >>
Time Temp. Humidity Pressure Rain* Wind** Luminosity Snow
1787843768 26.67° C 89% 1018 hPa 0 mm - 347 W/m² -
1787843463 26.11° C 92% 1017.9 hPa 0 mm - 361 W/m² -
1787843160 25.56° C 95% 1017.9 hPa 0 mm - 387 W/m² -
1787842860 25.56° C 97% 1017.9 hPa 0 mm - 194 W/m² -
1787842555 25° C 98% 1017.8 hPa 0 mm - 319 W/m² -
1787842254 25° C 98% 1017.8 hPa 0 mm - 166 W/m² -
1787841949 24.44° C 99% 1017.8 hPa 0 mm - 161 W/m² -
1787841645 24.44° C 99% 1017.7 hPa 0 mm - 170 W/m² -
1787841344 24.44° C 99% 1017.9 hPa 0 mm - 125 W/m² -
1787841039 24.44° C 99% 1017.9 hPa 0 mm - 105 W/m² -
1787840734 23.89° C 99% 1017.9 hPa 0 mm - 99 W/m² -
1787840430 23.89° C 99% 1018 hPa 0 mm - 129 W/m² -
1787840125 23.89° C 99% 1017.8 hPa 0 mm - 100 W/m² -
1787839824 23.89° C 99% 1018 hPa 0 mm - 138 W/m² -
1787839519 23.89° C 99% 1017.7 hPa 0 mm - 181 W/m² -
1787839218 23.89° C 99% 1017.6 hPa 0 mm - 217 W/m² -
1787838918 23.89° C 99% 1017.8 hPa 0 mm - 98 W/m² -
1787838612 23.89° C 99% 1017.7 hPa 0 mm - 156 W/m² -
1787838311 23.33° C 99% 1017.8 hPa 0 mm - 138 W/m² -
1787838010 23.89° C 99% 1017.9 hPa 0 mm - 144 W/m² -
1787837710 23.33° C 99% 1017.4 hPa 0 mm - 132 W/m² -
1787837399 23.89° C 99% 1017.8 hPa 0 mm - 135 W/m² -
1787837095 23.89° C 99% 1017.7 hPa 0 mm - 127 W/m² -
1787836793 23.33° C 99% 1017.5 hPa 0 mm - 118 W/m² -
1787836489 23.33° C 99% 1017.5 hPa 0 mm - 108 W/m² -

* Rain latest hour (hover to see other rain measurements)
** Current wind speed in m/s (hover to see current wind gust speed)